TimeEDT,TemperatureF,Dew PointF,Humidity,Sea Level PressureIn,VisibilityMPH,Wind Direction,Wind SpeedMPH,Gust SpeedMPH,PrecipitationIn,Events,Conditions,WindDirDegrees,DateUTC
12:56 AM,48.9,41.0,74,29.94,10.0,West,11.5,-,N/A,,Partly Cloudy,280,2013-08-14 04:56:00
1:56 AM,48.9,42.1,77,29.92,10.0,West,8.1,-,N/A,,Partly Cloudy,270,2013-08-14 05:56:00
2:56 AM,48.9,43.0,80,29.92,10.0,West,5.8,-,N/A,,Overcast,260,2013-08-14 06:56:00
3:08 AM,48.2,42.8,82,29.92,10.0,West,5.8,-,N/A,,Mostly Cloudy,260,2013-08-14 07:08:00
3:56 AM,48.9,44.1,83,29.91,10.0,West,6.9,-,N/A,,Mostly Cloudy,260,2013-08-14 07:56:00
4:11 AM,48.2,44.6,87,29.92,10.0,West,11.5,-,N/A,,Mostly Cloudy,280,2013-08-14 08:11:00
4:56 AM,48.9,44.1,83,29.92,10.0,WNW,10.4,-,N/A,,Mostly Cloudy,290,2013-08-14 08:56:00
5:56 AM,48.9,45.0,86,29.93,10.0,West,10.4,-,N/A,,Overcast,280,2013-08-14 09:56:00
6:26 AM,50.0,44.6,82,29.93,10.0,WNW,11.5,-,N/A,,Overcast,290,2013-08-14 10:26:00
6:56 AM,50.0,46.9,89,29.95,6.0,WNW,12.7,-,0.00,Rain,Light Rain,300,2013-08-14 10:56:00
7:03 AM,50.0,46.4,87,29.95,6.0,WNW,13.8,-,0.00,Rain,Light Rain,300,2013-08-14 11:03:00
7:33 AM,50.0,48.2,94,29.96,9.0,WNW,12.7,-,0.00,Rain,Light Rain,300,2013-08-14 11:33:00
7:56 AM,50.0,48.0,93,29.97,10.0,WNW,12.7,-,0.00,,Overcast,300,2013-08-14 11:56:00
8:09 AM,51.8,48.2,88,29.97,10.0,WNW,11.5,-,0.00,Rain,Light Rain,300,2013-08-14 12:09:00
8:27 AM,51.8,48.2,88,29.97,10.0,WNW,11.5,-,0.00,,Overcast,300,2013-08-14 12:27:00
8:56 AM,52.0,48.0,86,29.99,10.0,NW,12.7,18.4,0.00,,Overcast,320,2013-08-14 12:56:00
9:56 AM,54.0,46.9,77,30.01,10.0,NW,16.1,25.3,N/A,,Overcast,320,2013-08-14 13:56:00
10:24 AM,55.4,48.2,77,30.00,10.0,NW,15.0,23.0,N/A,,Overcast,320,2013-08-14 14:24:00
10:56 AM,55.9,46.0,69,30.03,10.0,NNW,12.7,23.0,N/A,,Overcast,330,2013-08-14 14:56:00
11:19 AM,55.4,46.4,72,30.03,10.0,NNW,13.8,23.0,N/A,,Overcast,330,2013-08-14 15:19:00
11:41 AM,57.2,46.4,67,30.04,10.0,NNW,12.7,19.6,N/A,,Overcast,330,2013-08-14 15:41:00
11:56 AM,55.9,46.9,72,30.05,10.0,NW,13.8,19.6,N/A,,Overcast,320,2013-08-14 15:56:00
12:56 PM,59.0,48.0,67,30.06,10.0,NW,15.0,21.9,N/A,,Overcast,310,2013-08-14 16:56:00
1:56 PM,61.0,48.0,62,30.06,10.0,NW,9.2,19.6,N/A,,Mostly Cloudy,310,2013-08-14 17:56:00
2:56 PM,63.0,45.0,52,30.06,10.0,NW,11.5,24.2,N/A,,Scattered Clouds,310,2013-08-14 18:56:00
3:56 PM,64.0,45.0,50,30.06,10.0,NNW,16.1,23.0,N/A,,Scattered Clouds,330,2013-08-14 19:56:00
4:56 PM,63.0,43.0,48,30.08,10.0,NNW,10.4,20.7,N/A,,Scattered Clouds,330,2013-08-14 20:56:00
5:56 PM,60.1,43.0,53,30.10,10.0,NW,12.7,-,N/A,,Scattered Clouds,320,2013-08-14 21:56:00
6:56 PM,59.0,43.0,55,30.11,10.0,NW,9.2,19.6,N/A,,Scattered Clouds,320,2013-08-14 22:56:00
7:56 PM,55.9,44.1,64,30.12,10.0,WNW,9.2,-,N/A,,Clear,300,2013-08-14 23:56:00
8:56 PM,52.0,45.0,77,30.14,10.0,WNW,10.4,-,N/A,,Clear,300,2013-08-15 00:56:00
9:56 PM,50.0,44.1,80,30.16,10.0,West,9.2,-,N/A,,Clear,280,2013-08-15 01:56:00
10:56 PM,51.1,45.0,80,30.15,10.0,West,6.9,-,N/A,,Clear,270,2013-08-15 02:56:00
11:56 PM,52.0,46.0,80,30.16,10.0,West,8.1,-,N/A,,Clear,270,2013-08-15 03:56:00